Погода в Сурке

Россия / Республика Марий Эл     56°26′41″N   48°07′16″E
темп.,
°C
ветер,
м/с
пор.,
м/с
влажн.,
%
обл.,
%
осадки,
мм/ч
давл.,
гПа
погр.,
м
4 августа, ср
ср400:00+18ююз279777 0.1 1010174
03:00+18ююз229799 0.3 101056
06:00+19зюз139697 1.9 1010132
09:00+23сз3479100 4.1 1010410
12:00+19зсз3692100 2.6 1012273
15:00+19з238798 3.6 1012156
18:00+22юз2372100 0.1 1012179
21:00+17з22846 0.1 101330
5 августа, чт
чт500:00+16зсз267439 0.0 1013118
03:00+16ссз377234 0.0 1014188
06:00+16ссз277744 0.0 1016210
09:00+20ссз465699 0.0 1016664
12:00+23ссз343989 0.0 10162105
15:00+23сз343565 0.0 10162585
18:00+20с255685 0.0 1016162
21:00+15ссз22630 0.0 101726
6 августа, пт
пт600:00+13с226623 0.0 101822
03:00+12с116883 0.0 101810
06:00+15св116491 0.0 101853
09:00+21всв1243100 0.0 1018608
12:00+24св1134100 0.0 10182115
15:00+23св2137100 0.0 10171689
18:00+20всв2255100 0.0 101743
21:00+17вюв3565100 0.2 101797
7 августа, сб
сб700:00+16вюв3976100 0.2 1017246
03:00+15вюв296840 0.2 1017241
06:00+16в3765100 0.0 1018218
09:00+18юв3759100 0.0 1018367
12:00+21всв3658100 0.0 1017188
15:00+20всв356295 0.0 1017165
18:00+19в3865100 0.1 1016193
21:00+17в386967 0.1 1017187
8 августа, вс
вс800:00+16в387783 0.0 1018232
03:00+14вюв258463 0.0 101890
06:00+16всв247556 0.0 1018112
09:00+21в345915 0.0 1019352
12:00+26в234391 0.0 1018848
15:00+28всв334279 0.0 1018934
18:00+22всв486299 0.0 1018421
21:00+16всв4118046 0.0 1020314